[[{"header":{"parameterUnit":"m.s-1","parameterCategory":2,"la1":30.2991,"la2":30.254,"lo1":-89.0895,"lo2":-89.0444,"dy":0.0017,"dx":0.0017,"nx":28,"ny":28,"refTime":"2023-07-28T03:00:00:Z","depth":"0","parameterNumber":2,"parameterNumberName":"U-component_of_CURRENTS"},"data":[0,0,0,0,0,0,0,0,0,0,0,0,0,0,0,0,0,0,0,0,0,0,0,0,0,0,0,0,0,0,0,0,0,0,0,0,0,0,0,0,0,0,0,0,0,0,0,0,0,0,0,0,0,0,0,0,0,0,-0.0441,-0.0441,0,-0.0394,-0.0393,-0.0392,-0.0378,-0.0378,-0.0379,-0.038,-0.0317,-0.0314,-0.0312,0,0,0,0,0,0,0,0,0,0,0,0,0,-0.0475,-0.0474,-0.0441,-0.0441,-0.0441,-0.0394,-0.0393,-0.0392,-0.0378,-0.0378,-0.0379,-0.038,-0.0317,-0.0315,-0.0312,0,0,0,0,0,0,0,0,0,0,0,0,0,-0.0443,-0.0474,-0.0441,-0.0432,-0.0431,-0.0394,-0.0393,-0.0391,-0.0377,-0.0378,-0.0379,-0.038,-0.0318,-0.0315,-0.0311,-0.0269,0,0,-0.0301,-0.0299,0,0,0,0,0,0,0,0,-0.0445,-0.0441,-0.0433,-0.0432,-0.0431,-0.0397,-0.0382,-0.0351,-0.0377,-0.0393,-0.038,-0.0381,-0.0344,-0.0339,-0.0321,-0.0267,-0.0264,-0.03,-0.0298,-0.0297,-0.0296,0,0,0,0,0,0,0,-0.0447,-0.0443,-0.0418,-0.0433,-0.0432,-0.0415,-0.0411,-0.0375,-0.0359,-0.0391,-0.0392,-0.0393,-0.0343,-0.0324,-0.0319,-0.0263,-0.0301,-0.0297,-0.0295,-0.0294,-0.0129,-0.0127,0,0,0,0,0,0,-0.0463,-0.0445,-0.0419,-0.0417,-0.0446,-0.0414,-0.041,-0.0403,-0.036,-0.0356,-0.0393,-0.0393,-0.033,-0.0323,-0.0317,-0.0255,-0.0297,-0.0294,-0.0292,-0.0131,-0.0128,-0.0126,0,0,0,0,0,0,-0.0464,-0.0461,-0.0421,-0.0434,-0.0429,-0.0413,-0.0405,-0.0402,-0.0384,-0.0362,-0.0357,-0.0379,-0.033,-0.0322,-0.0281,-0.0253,-0.0292,-0.0289,-0.0134,-0.013,-0.0127,-0.0137,0,0,0,0,0,0,-0.0465,-0.0461,-0.0456,-0.0435,-0.0429,-0.0401,-0.0405,-0.04,-0.0386,-0.0385,-0.0349,-0.0344,-0.033,-0.0286,-0.0277,-0.0249,-0.0286,-0.0137,-0.0132,-0.0128,-0.0139,-0.0134,-0.013,0,0,0,0,0,-0.0466,-0.0459,-0.0456,-0.0453,-0.0424,-0.0401,-0.0395,-0.0385,-0.0384,-0.0372,-0.0346,-0.0345,-0.0252,-0.0282,-0.0272,-0.0242,-0.0139,-0.0133,-0.0128,-0.0142,-0.0135,-0.013,0,0,0,0,0,0,-0.0473,-0.0457,-0.0453,-0.0442,-0.0425,-0.0401,-0.0392,-0.038,-0.0348,-0.0349,-0.0325,-0.0317,-0.027,-0.0245,-0.0279,-0.0176,-0.0191,-0.0183,-0.0204,-0.0197,-0.0193,-0.018,-0.0283,0,0,0,0,0,-0.0472,-0.0464,-0.0445,-0.0437,-0.0429,-0.0407,-0.0396,-0.0387,-0.0361,-0.0348,-0.0322,-0.0282,-0.0237,-0.0213,-0.0177,-0.0123,-0.0045,-0.009,-0.0085,-0.0081,-0.006,0.0063,0.0081,-0.0109,-0.0109,-0.0109,0,0,-0.0474,-0.0466,-0.0461,-0.0438,-0.0425,-0.0401,-0.0401,-0.0386,-0.0359,-0.0345,-0.0301,-0.0272,-0.022,-0.0166,-0.014,-0.0144,0.0024,-0.0075,-0.0073,-0.0052,0.007,0.0089,0.0105,-0.0105,-0.0106,-0.0106,0,0,-0.0477,-0.0465,-0.0458,-0.0439,-0.0422,-0.04,-0.0395,-0.0366,-0.0348,-0.0304,-0.0281,-0.023,-0.0173,-0.0122,-0.0089,-0.0026,0.0038,-0.0016,0.0024,0.0143,0.0159,0.0174,0.0333,0.0362,-0.0006,-0.0006,-0.0006,0,-0.0482,-0.0463,-0.0452,-0.0436,-0.0415,-0.0399,-0.0374,-0.0348,-0.0308,-0.0275,-0.0293,-0.0165,-0.0144,-0.004,-0.0027,-0.0016,0.0075,-0.0014,0.0148,0.0165,0.018,0.0339,0.0371,-0.0006,-0.0006,-0.0006,-0.0006,0,-0.0472,-0.0454,-0.0448,-0.0416,-0.0391,-0.0369,-0.0334,-0.0304,-0.0282,-0.0246,-0.0159,-0.0113,-0.0027,-0.0016,-0.001,0.0121,0.016,0.0129,0.0125,0.0199,0.0362,0.0396,-0.0006,-0.0006,-0.0006,-0.0006,0,0,-0.0476,-0.0447,-0.0441,-0.0414,-0.0375,-0.0346,-0.0304,-0.024,-0.0185,-0.0147,-0.0058,0.0007,0.0042,0.0085,0.0115,0.0205,0.0385,0.0212,0.0218,0.0357,0.0695,0.0791,0.0838,0.0377,0.0382,0.0386,0.0776,0,-0.0464,-0.0433,-0.0417,-0.0362,-0.0331,-0.0296,-0.0249,-0.0191,-0.0136,-0.0049,0.0016,0.0109,0.0081,0.0136,0.022,0.0341,0.047,0.0286,0.0615,0.0627,0.0691,0.0878,0.095,0.1309,0.081,0.0816,0.082,0,-0.0435,-0.0419,-0.0376,-0.0313,-0.0295,-0.026,-0.0156,-0.0112,-0.0002,0.0046,0.0146,0.0202,0.0354,0.0302,0.0584,0.047,0.0594,0.0681,0.0697,0.0814,0.0786,0.1152,0.139,0.1392,0.0872,0.0868,0.0864,0,-0.0401,-0.037,-0.0332,-0.0312,-0.0252,-0.0217,-0.0176,-0.0078,-0.0003,0.0129,0.0222,0.0367,0.0499,0.0639,0.0814,0.072,0.1133,0.1028,0.1252,0.1261,0.1406,0.1419,0.1676,0.1256,0.1255,0.1254,0.1253,0,-0.0356,-0.0309,-0.0318,-0.0284,-0.0229,-0.0193,-0.0095,-0.0039,0.0087,0.0225,0.0286,0.0451,0.0589,0.0817,0.0916,0.124,0.1243,0.1335,0.1389,0.1409,0.1417,0.1486,0.1409,0.1269,0.1266,0.1263,0.126,0,-0.0263,-0.0283,-0.0233,-0.0209,-0.0203,-0.0152,-0.0057,0.0039,0.0138,0.0329,0.0389,0.0598,0.0898,0.1069,0.1361,0.144,0.1688,0.1781,0.1818,0.1868,0.2011,0.193,0.2076,0.2078,0.2102,0.2107,0.2111,0,-0.0182,-0.016,-0.0176,-0.0163,-0.0144,-0.0085,-0.0023,0.0059,0.0187,0.0439,0.0569,0.0875,0.1121,0.1598,0.1814,0.211,0.1953,0.2318,0.2129,0.2114,0.2063,0.1798,0.1766,0.2345,0.2351,0.2356,0.236,0,-0.0008,-0.0046,-0.0028,-0.0032,0.0004,0.0061,0.0163,0.0255,0.0407,0.0566,0.0854,0.1051,0.1522,0.1882,0.2254,0.2398,0.2241,0.2424,0.2412,0.2312,0.2042,0.2039,0.1998,0.2402,0.2398,0.2395,0.2392,0.2391,0.014,0.0172,0.0159,0.018,0.0186,0.0273,0.0359,0.0479,0.0665,0.095,0.1058,0.1382,0.1838,0.2372,0.2532,0.2833,0.2589,0.2818,0.2746,0.2495,0.2416,0.2488,0.2915,0.2914,0.2913,0.2912,0.2911,0,0.0406,0.0409,0.0403,0.0438,0.0488,0.0431,0.0558,0.0663,0.0894,0.1103,0.1333,0.1792,0.2255,0.2601,0.3036,0.312,0.2953,0.3108,0.2762,0.2735,0.2884,0.2812,0.3232,0.3232,0.3232,0.3232,0.3232,0.3232,0.056,0.0649,0.0632,0.0767,0.0758,0.0856,0.0924,0.1019,0.1157,0.1451,0.1685,0.1848,0.2218,0.2813,0.3158,0.3196,0.3013,0.2977,0.2884,0.3003,0.2967,0.2932,0.2851,0.3272,0.3272,0.2681,0.2677,0.2674]},{"header":{"parameterUnit":"m.s-1","parameterCategory":2,"la1":30.2991,"la2":30.254,"lo1":-89.0895,"lo2":-89.0444,"dy":0.0017,"dx":0.0017,"nx":28,"ny":28,"refTime":"2023-07-28T03:00:00:Z","depth":"0","parameterNumber":3,"parameterNumberName":"V-component_of_CURRENTS"},"data":[0,0,0,0,0,0,0,0,0,0,0,0,0,0,0,0,0,0,0,0,0,0,0,0,0,0,0,0,0,0,0,0,0,0,0,0,0,0,0,0,0,0,0,0,0,0,0,0,0,0,0,0,0,0,0,0,0,0,-0.1663,-0.1664,0,-0.1727,-0.1728,-0.1728,-0.1735,-0.1735,-0.1735,-0.1735,-0.1496,-0.149,-0.1484,0,0,0,0,0,0,0,0,0,0,0,0,0,-0.1537,-0.1539,-0.1663,-0.1664,-0.1665,-0.1727,-0.1728,-0.1728,-0.1735,-0.1735,-0.1735,-0.1735,-0.1498,-0.149,-0.1483,0,0,0,0,0,0,0,0,0,0,0,0,0,-0.1591,-0.154,-0.1663,-0.168,-0.1683,-0.1727,-0.1728,-0.1728,-0.1735,-0.1735,-0.1735,-0.1735,-0.15,-0.1491,-0.1482,-0.1431,0,0,-0.1454,-0.145,0,0,0,0,0,0,0,0,-0.1588,-0.1595,-0.1676,-0.1679,-0.1682,-0.1727,-0.1596,-0.1615,-0.1735,-0.171,-0.1735,-0.1734,-0.1548,-0.1535,-0.1545,-0.1419,-0.1409,-0.1453,-0.1447,-0.1443,-0.1441,0,0,0,0,0,0,0,-0.1584,-0.1592,-0.1683,-0.1678,-0.1681,-0.1682,-0.1689,-0.1601,-0.1621,-0.1712,-0.1714,-0.1729,-0.1547,-0.1555,-0.1539,-0.1406,-0.1453,-0.1445,-0.1439,-0.1435,-0.1143,-0.1141,0,0,0,0,0,0,-0.1587,-0.1589,-0.1682,-0.1686,-0.1639,-0.1685,-0.1692,-0.1709,-0.1628,-0.162,-0.173,-0.173,-0.1571,-0.155,-0.153,-0.1421,-0.1443,-0.1435,-0.1429,-0.1145,-0.1143,-0.114,0,0,0,0,0,0,-0.1584,-0.1595,-0.1679,-0.1642,-0.1654,-0.1688,-0.1706,-0.1711,-0.172,-0.1646,-0.163,-0.1736,-0.157,-0.1543,-0.1473,-0.1413,-0.143,-0.1422,-0.1148,-0.1144,-0.1141,-0.1228,0,0,0,0,0,0,-0.158,-0.1593,-0.161,-0.1643,-0.1656,-0.1704,-0.1707,-0.1712,-0.1733,-0.1733,-0.1645,-0.1624,-0.1567,-0.1488,-0.1464,-0.14,-0.1415,-0.1151,-0.1146,-0.1142,-0.1228,-0.1228,-0.1228,0,0,0,0,0,-0.1576,-0.1593,-0.161,-0.1622,-0.1676,-0.1705,-0.171,-0.173,-0.1733,-0.1737,-0.1693,-0.1626,-0.1441,-0.1481,-0.1452,-0.1384,-0.1153,-0.1148,-0.1143,-0.1228,-0.1228,-0.1228,0,0,0,0,0,0,-0.1547,-0.1597,-0.1616,-0.1649,-0.1677,-0.1707,-0.1722,-0.1733,-0.1709,-0.1699,-0.1628,-0.1603,-0.151,-0.1437,-0.1482,-0.1283,-0.1272,-0.1261,-0.1345,-0.1345,-0.1345,-0.1348,-0.1407,0,0,0,0,0,-0.1551,-0.1576,-0.162,-0.1646,-0.1663,-0.1693,-0.171,-0.172,-0.1709,-0.1701,-0.1646,-0.1558,-0.1467,-0.1407,-0.1325,-0.1228,-0.1145,-0.1153,-0.1153,-0.1154,-0.1134,-0.0984,-0.0969,-0.1124,-0.1124,-0.1124,0,0,-0.1544,-0.158,-0.1591,-0.1642,-0.1667,-0.1674,-0.17,-0.1723,-0.1709,-0.1668,-0.1623,-0.1566,-0.1447,-0.1353,-0.1297,-0.1283,-0.1069,-0.1148,-0.115,-0.1129,-0.0977,-0.0962,-0.0949,-0.1121,-0.1121,-0.1122,0,0,-0.1533,-0.1579,-0.1589,-0.161,-0.1652,-0.1668,-0.1674,-0.1701,-0.1696,-0.1662,-0.1614,-0.1539,-0.1415,-0.1324,-0.1255,-0.1195,-0.1089,-0.1148,-0.1134,-0.099,-0.0977,-0.0964,-0.0867,-0.0845,-0.1132,-0.1133,-0.1133,0,-0.1521,-0.1543,-0.1594,-0.1604,-0.161,-0.1661,-0.1651,-0.1657,-0.1653,-0.1621,-0.1644,-0.1463,-0.1389,-0.1234,-0.1233,-0.1191,-0.1115,-0.1158,-0.0994,-0.0979,-0.0964,-0.0867,-0.0841,-0.1136,-0.1136,-0.1135,-0.1135,0,-0.1513,-0.1524,-0.1532,-0.1556,-0.1569,-0.1574,-0.1593,-0.1591,-0.1595,-0.1581,-0.1476,-0.1412,-0.1284,-0.1252,-0.1234,-0.1073,-0.1058,-0.1032,-0.1007,-0.0954,-0.0855,-0.0827,-0.1141,-0.114,-0.1139,-0.1138,0,0,-0.1486,-0.1516,-0.1517,-0.1502,-0.1539,-0.1539,-0.1523,-0.1499,-0.1442,-0.1449,-0.1344,-0.1262,-0.1237,-0.1157,-0.1106,-0.1012,-0.0881,-0.0993,-0.0984,-0.0922,-0.059,-0.0605,-0.0576,-0.0833,-0.0828,-0.0824,-0.0575,0,-0.1455,-0.1451,-0.1472,-0.1438,-0.1429,-0.1451,-0.141,-0.1392,-0.137,-0.1285,-0.1232,-0.1108,-0.119,-0.1103,-0.104,-0.0894,-0.0805,-0.0952,-0.0626,-0.0616,-0.0656,-0.0542,-0.0472,-0.0245,-0.0547,-0.0542,-0.0539,0,-0.1435,-0.1429,-0.14,-0.135,-0.1344,-0.132,-0.1252,-0.1218,-0.1134,-0.1099,-0.1025,-0.0975,-0.0843,-0.0906,-0.0688,-0.0781,-0.0696,-0.0621,-0.0608,-0.0565,-0.0577,-0.0334,-0.0181,-0.0266,-0.0494,-0.0498,-0.0501,0,-0.1391,-0.1368,-0.1337,-0.133,-0.1293,-0.1253,-0.1218,-0.1153,-0.105,-0.0951,-0.0834,-0.0755,-0.0605,-0.0537,-0.0458,-0.0532,-0.0215,-0.0269,-0.021,-0.0212,-0.0054,-0.0051,0.0045,-0.009,-0.0091,-0.0092,-0.0092,0,-0.1352,-0.1314,-0.1307,-0.1284,-0.1182,-0.1185,-0.1039,-0.101,-0.0861,-0.0673,-0.0709,-0.0519,-0.0496,-0.0346,-0.0349,-0.019,-0.0112,-0.0171,-0.0122,-0.0087,-0.009,-0.0079,-0.0159,-0.0082,-0.0084,-0.0086,-0.0088,0,-0.1294,-0.1309,-0.125,-0.12,-0.116,-0.1087,-0.0901,-0.0753,-0.068,-0.0423,-0.0357,-0.0239,-0.0074,-0.008,0.0099,0.0034,0.0094,0.0176,0.0172,0.0213,0.0117,0.003,0.0088,0.0014,0.0289,0.0291,0.0292,0,-0.124,-0.1225,-0.1172,-0.1083,-0.1044,-0.0913,-0.0758,-0.0663,-0.0476,-0.0228,-0.0049,0.0131,0.0295,0.0458,0.039,0.0406,0.0242,0.0452,0.0311,0.0157,0.0099,-0.0102,-0.0184,0.0489,0.0492,0.0494,0.0496,0,-0.1103,-0.1124,-0.1078,-0.0906,-0.076,-0.058,-0.037,-0.0212,-0.0039,0.0143,0.0418,0.0548,0.0663,0.0726,0.0679,0.0639,0.0327,0.0495,0.0403,0.0321,0.0059,-0.0003,0.0221,0.0516,0.0514,0.0512,0.0511,0.051,-0.096,-0.0913,-0.0832,-0.0662,-0.0483,-0.0215,-0.0046,0.0169,0.0436,0.0713,0.0772,0.0974,0.1012,0.0952,0.0817,0.0623,0.0489,0.0566,0.0495,0.0318,0.0177,0.0389,0.0674,0.0673,0.0672,0.0672,0.0671,0,-0.0699,-0.0667,-0.0528,-0.0305,-0.0048,-0.002,0.028,0.0439,0.0728,0.0929,0.1108,0.1331,0.1304,0.1144,0.094,0.071,0.0462,0.0565,0.0345,0.0276,0.0596,0.0531,0.072,0.072,0.072,0.072,0.072,0.0721,-0.0537,-0.0378,-0.0343,0.009,0.0252,0.0548,0.0694,0.0854,0.0997,0.1284,0.1459,0.1584,0.1659,0.1176,0.0807,0.0671,0.0351,0.0286,0.0108,0.0383,0.0377,0.037,0.0291,0.0427,0.0426,-0.0222,-0.0227,-0.0231]}],[{"header":{"parameterUnit":"m.s-1","parameterCategory":2,"la1":30.2991,"la2":30.254,"lo1":-89.0895,"lo2":-89.0444,"dy":0.0017,"dx":0.0017,"nx":28,"ny":28,"refTime":"2023-07-28T03:00:00:Z","depth":"2","parameterNumber":2,"parameterNumberName":"U-component_of_CURRENTS"},"data":[0,0,0,0,0,0,0,0,0,0,0,0,0,0,0,0,0,0,0,0,0,0,0,0,0,0,0,0,0,0,0,0,0,0,0,0,0,0,0,0,0,0,0,0,0,0,0,0,0,0,0,0,0,0,0,0,0,0,-0.0697,-0.0699,0,-0.0811,-0.0812,-0.0813,-0.0883,-0.0883,-0.0884,-0.0884,-0.0966,-0.0967,-0.0969,0,0,0,0,0,0,0,0,0,0,0,0,0,-0.0586,-0.0587,-0.0697,-0.0699,-0.07,-0.081,-0.0812,-0.0813,-0.0883,-0.0883,-0.0884,-0.0885,-0.0965,-0.0967,-0.0969,0,0,0,0,0,0,0,0,0,0,0,0,0,-0.0659,-0.0588,-0.0697,-0.075,-0.0755,-0.081,-0.0812,-0.0814,-0.0883,-0.0883,-0.0884,-0.0885,-0.0964,-0.0967,-0.0969,-0.097,0,0,-0.0977,-0.0978,0,0,0,0,0,0,0,0,-0.0655,-0.0663,-0.074,-0.0746,-0.0753,-0.0835,-0.0803,-0.0865,-0.0882,-0.0833,-0.0884,-0.0885,-0.0919,-0.0926,-0.0944,-0.0974,-0.0977,-0.0977,-0.0979,-0.098,-0.0981,0,0,0,0,0,0,0,-0.0649,-0.0658,-0.0741,-0.0742,-0.075,-0.0783,-0.0793,-0.0815,-0.0868,-0.0837,-0.0843,-0.0858,-0.0922,-0.0941,-0.0946,-0.0978,-0.0977,-0.098,-0.0981,-0.0982,-0.0977,-0.0975,0,0,0,0,0,0,-0.0635,-0.0653,-0.0737,-0.0744,-0.0706,-0.0784,-0.0796,-0.0806,-0.0869,-0.088,-0.0857,-0.086,-0.0936,-0.0943,-0.0949,-0.0919,-0.098,-0.0982,-0.0984,-0.0978,-0.0976,-0.0975,0,0,0,0,0,0,-0.0632,-0.0642,-0.0733,-0.0703,-0.0717,-0.0785,-0.0796,-0.0808,-0.0842,-0.0885,-0.0895,-0.088,-0.0937,-0.0945,-0.0978,-0.0924,-0.0984,-0.0986,-0.098,-0.0978,-0.0975,-0.088,0,0,0,0,0,0,-0.0629,-0.064,-0.0642,-0.0702,-0.0718,-0.0773,-0.0796,-0.081,-0.0849,-0.0856,-0.0907,-0.0915,-0.0938,-0.0974,-0.098,-0.0928,-0.0988,-0.0982,-0.0979,-0.0976,-0.0886,-0.0875,-0.0866,0,0,0,0,0,-0.0624,-0.0635,-0.0641,-0.0652,-0.0719,-0.0774,-0.0786,-0.0836,-0.085,-0.0867,-0.0899,-0.0914,-0.0957,-0.0976,-0.0984,-0.0931,-0.0984,-0.098,-0.0977,-0.089,-0.0877,-0.0866,0,0,0,0,0,0,-0.0594,-0.0645,-0.0653,-0.0679,-0.0722,-0.0787,-0.0812,-0.0838,-0.0878,-0.0883,-0.0918,-0.0928,-0.0923,-0.095,-0.097,-0.0918,-0.0962,-0.096,-0.0894,-0.0882,-0.0872,-0.0854,-0.099,0,0,0,0,0,-0.0584,-0.0598,-0.0654,-0.0671,-0.0697,-0.075,-0.0779,-0.081,-0.0853,-0.0873,-0.0901,-0.0917,-0.091,-0.092,-0.093,-0.0923,-0.092,-0.0886,-0.0876,-0.0868,-0.0857,-0.0804,-0.0787,-0.0962,-0.0962,-0.0962,0,0,-0.0573,-0.0604,-0.0611,-0.0664,-0.0704,-0.0717,-0.077,-0.0816,-0.0811,-0.0873,-0.0877,-0.0892,-0.0902,-0.0882,-0.088,-0.0903,-0.0816,-0.0863,-0.0855,-0.0849,-0.0798,-0.0781,-0.0765,-0.096,-0.096,-0.0961,0,0,-0.0552,-0.0592,-0.0591,-0.0622,-0.0677,-0.071,-0.0721,-0.0781,-0.0799,-0.081,-0.0827,-0.0818,-0.0837,-0.0818,-0.081,-0.0755,-0.0765,-0.0751,-0.0688,-0.0636,-0.0621,-0.0607,-0.0581,-0.0566,-0.0746,-0.0746,-0.0746,0,-0.0534,-0.0546,-0.0601,-0.0605,-0.0632,-0.0698,-0.0703,-0.0719,-0.0773,-0.0783,-0.0799,-0.0783,-0.079,-0.0739,-0.0707,-0.0727,-0.0716,-0.0733,-0.0621,-0.0608,-0.0596,-0.0572,-0.0557,-0.0741,-0.0741,-0.0742,-0.0742,0,-0.0504,-0.0517,-0.0529,-0.0544,-0.0573,-0.0605,-0.0636,-0.0658,-0.0682,-0.0693,-0.0672,-0.0674,-0.0664,-0.0643,-0.0655,-0.0565,-0.0591,-0.0613,-0.0649,-0.0572,-0.0553,-0.0538,-0.0733,-0.0735,-0.0737,-0.0738,0,0,-0.0471,-0.0499,-0.0504,-0.0519,-0.0556,-0.0592,-0.0575,-0.0602,-0.0601,-0.0603,-0.0579,-0.0533,-0.0542,-0.0532,-0.0532,-0.0478,-0.0372,-0.0502,-0.0502,-0.0472,-0.027,-0.0269,-0.0254,-0.0375,-0.0372,-0.0369,-0.029,0,-0.0441,-0.0441,-0.0456,-0.0467,-0.0491,-0.0536,-0.0524,-0.0544,-0.0553,-0.0541,-0.0516,-0.0484,-0.0494,-0.0474,-0.0418,-0.0387,-0.033,-0.0392,-0.0353,-0.0352,-0.0356,-0.0235,-0.0233,-0.016,-0.0276,-0.0274,-0.0272,0,-0.0417,-0.043,-0.043,-0.0472,-0.0487,-0.0491,-0.0529,-0.0523,-0.0505,-0.0497,-0.0453,-0.0435,-0.0345,-0.0363,-0.0254,-0.0296,-0.0266,-0.0243,-0.0241,-0.0262,-0.0323,-0.0255,-0.013,-0.0249,-0.0251,-0.0253,-0.0254,0,-0.0415,-0.0428,-0.0439,-0.045,-0.0481,-0.0501,-0.0526,-0.0526,-0.0507,-0.0461,-0.0414,-0.0348,-0.0284,-0.023,-0.0177,-0.0203,-0.0069,-0.0108,-0.0082,-0.0084,-0.0084,-0.009,-0.0015,-0.0016,-0.0016,-0.0016,-0.0016,0,-0.0409,-0.0428,-0.0451,-0.0465,-0.0502,-0.0519,-0.0527,-0.0541,-0.0488,-0.0442,-0.039,-0.0323,-0.0239,-0.0162,-0.0141,-0.0058,-0.0037,-0.0036,-0.0041,-0.0052,-0.0056,-0.0148,-0.0164,-0.0013,-0.0014,-0.0014,-0.0015,0,-0.0426,-0.0424,-0.046,-0.0493,-0.0508,-0.055,-0.054,-0.0512,-0.0474,-0.0396,-0.0359,-0.026,-0.0161,-0.0096,-0.0002,0.0007,0.0063,0.0077,0.0048,0.0039,-0.0001,-0.0013,0.0135,0.0136,0.0137,0.0138,0.0139,0,-0.0449,-0.0459,-0.0495,-0.0499,-0.0523,-0.0554,-0.0543,-0.0522,-0.0474,-0.037,-0.0321,-0.0193,-0.011,0.0021,0.0085,0.0154,0.0107,0.0164,0.0129,0.0046,0.0026,0.0011,-0.0002,0.0161,0.0161,0.0162,0.0163,0,-0.0507,-0.0508,-0.0521,-0.0498,-0.0505,-0.0507,-0.0502,-0.0463,-0.0405,-0.0331,-0.0237,-0.0162,-0.0014,0.0094,0.0189,0.019,0.0155,0.018,0.0143,0.0113,0.0075,0.0052,0.0038,0.0169,0.0168,0.0168,0.0167,0.0167,-0.0563,-0.0553,-0.0513,-0.0496,-0.0469,-0.0433,-0.0437,-0.0386,-0.0323,-0.0188,-0.0171,-0.0026,0.0046,0.0233,0.0239,0.0244,0.024,0.0212,0.0209,0.0205,0.0185,0.0151,0.0253,0.0253,0.0253,0.0253,0.0253,0,-0.0597,-0.052,-0.0492,-0.0444,-0.0384,-0.0381,-0.0355,-0.0325,-0.0252,-0.0112,-0.001,0.0098,0.0202,0.0256,0.0314,0.0312,0.0272,0.0256,0.0226,0.0221,0.0216,0.0195,0.0267,0.0267,0.0267,0.0267,0,0,-0.0602,-0.0532,-0.0467,-0.0354,-0.0303,-0.0241,-0.0231,-0.0189,-0.0106,0.0035,0.0158,0.028,0.0305,0.0339,0.0316,0.0321,0.0256,0.0282,0.0274,0.0237,0.0233,0.0197,0.016,0,0,0,0,0]},{"header":{"parameterUnit":"m.s-1","parameterCategory":2,"la1":30.2991,"la2":30.254,"lo1":-89.0895,"lo2":-89.0444,"dy":0.0017,"dx":0.0017,"nx":28,"ny":28,"refTime":"2023-07-28T03:00:00:Z","depth":"2","parameterNumber":3,"parameterNumberName":"V-component_of_CURRENTS"},"data":[0,0,0,0,0,0,0,0,0,0,0,0,0,0,0,0,0,0,0,0,0,0,0,0,0,0,0,0,0,0,0,0,0,0,0,0,0,0,0,0,0,0,0,0,0,0,0,0,0,0,0,0,0,0,0,0,0,0,-0.0261,-0.026,0,-0.0183,-0.0182,-0.0182,-0.0125,-0.0125,-0.0125,-0.0124,0.0066,0.007,0.0075,0,0,0,0,0,0,0,0,0,0,0,0,0,-0.0287,-0.0288,-0.0261,-0.026,-0.0259,-0.0183,-0.0182,-0.0181,-0.0126,-0.0125,-0.0125,-0.0124,0.0064,0.007,0.0075,0,0,0,0,0,0,0,0,0,0,0,0,0,-0.0249,-0.0288,-0.0261,-0.0222,-0.0218,-0.0184,-0.0182,-0.0181,-0.0126,-0.0125,-0.0124,-0.0124,0.0062,0.0069,0.0076,0.0106,0,0,0.0097,0.01,0,0,0,0,0,0,0,0,-0.0252,-0.0249,-0.0229,-0.0225,-0.022,-0.0164,-0.0122,-0.0079,-0.0126,-0.016,-0.0124,-0.0123,-0.0001,0.0011,0.0023,0.0115,0.0123,0.0098,0.0102,0.0105,0.0107,0,0,0,0,0,0,0,-0.0255,-0.0251,-0.023,-0.0228,-0.0223,-0.0184,-0.0178,-0.0114,-0.0083,-0.0157,-0.0153,-0.0145,0.0002,0.0016,0.0028,0.0126,0.0098,0.0104,0.0108,0.0111,0.0384,0.0387,0,0,0,0,0,0,-0.027,-0.0254,-0.0232,-0.0227,-0.0235,-0.0184,-0.0178,-0.0182,-0.0086,-0.0072,-0.0146,-0.0143,0.0004,0.002,0.0035,0.0176,0.0105,0.0112,0.0116,0.0381,0.0385,0.0388,0,0,0,0,0,0,-0.0271,-0.0269,-0.0235,-0.0238,-0.0231,-0.0185,-0.019,-0.0181,-0.0143,-0.0079,-0.0062,-0.0114,0.0005,0.0026,0.0129,0.018,0.0115,0.0121,0.0377,0.0382,0.0386,0.0394,0,0,0,0,0,0,-0.0272,-0.027,-0.0271,-0.024,-0.0232,-0.0195,-0.019,-0.018,-0.0141,-0.0135,-0.0046,-0.0029,0.0007,0.0119,0.0136,0.0188,0.0127,0.0373,0.0379,0.0385,0.0389,0.0398,0.0405,0,0,0,0,0,-0.0274,-0.0269,-0.0272,-0.0269,-0.0238,-0.0194,-0.0185,-0.0149,-0.014,-0.0114,-0.0046,-0.0031,0.0168,0.0126,0.0146,0.0202,0.0371,0.0378,0.0384,0.0386,0.0396,0.0405,0,0,0,0,0,0,-0.027,-0.0262,-0.0265,-0.0257,-0.0223,-0.0184,-0.0157,-0.0138,-0.0068,-0.0051,0.0003,0.0026,0.0137,0.0174,0.0126,0.0301,0.0274,0.0285,0.0269,0.0279,0.0287,0.024,0.0133,0,0,0,0,0,-0.0278,-0.0279,-0.0254,-0.0246,-0.0228,-0.0192,-0.0169,-0.0141,-0.0082,-0.0052,0.002,0.0101,0.0177,0.0229,0.0303,0.0395,0.0358,0.0448,0.0456,0.0462,0.0441,0.0417,0.0418,0.041,0.041,0.041,0,0,-0.0275,-0.0271,-0.0271,-0.0246,-0.0219,-0.0183,-0.0174,-0.0126,-0.0077,-0.0039,0.0071,0.0133,0.0208,0.0313,0.0366,0.0352,0.045,0.0471,0.0475,0.045,0.0424,0.0424,0.0424,0.0415,0.0414,0.0413,0,0,-0.0261,-0.0264,-0.0255,-0.0228,-0.0186,-0.0159,-0.0142,-0.0076,-0.0026,0.0075,0.0116,0.0199,0.0336,0.0385,0.0426,0.0522,0.0488,0.0569,0.0573,0.0551,0.055,0.0548,0.0499,0.0493,0.0575,0.0575,0.0575,0,-0.0255,-0.0251,-0.0238,-0.0214,-0.019,-0.0147,-0.0113,-0.0055,0.0045,0.0093,0.0123,0.0293,0.0362,0.0449,0.0491,0.0536,0.0502,0.0524,0.0553,0.0551,0.0548,0.0499,0.0492,0.0577,0.0576,0.0576,0.0576,0,-0.0229,-0.0223,-0.0206,-0.0175,-0.0142,-0.0102,-0.0035,0.0035,0.0103,0.0157,0.0278,0.0361,0.0448,0.0501,0.0529,0.057,0.0544,0.0555,0.0509,0.0548,0.0496,0.0488,0.0578,0.0578,0.0577,0.0577,0,0,-0.0222,-0.0198,-0.0192,-0.0183,-0.012,-0.0091,0.0,0.0083,0.0137,0.0251,0.031,0.0451,0.0475,0.0522,0.0567,0.0563,0.0531,0.0553,0.0552,0.0467,0.0451,0.0391,0.0376,0.0536,0.0535,0.0534,0.0418,0,-0.0202,-0.0179,-0.0159,-0.0117,-0.0096,-0.0038,0.0036,0.0119,0.0205,0.0283,0.0362,0.0445,0.049,0.0527,0.0531,0.0533,0.0511,0.0559,0.0458,0.0455,0.0364,0.0365,0.0339,0.023,0.0409,0.0408,0.0407,0,-0.0178,-0.0171,-0.0144,-0.0107,-0.0088,-0.0046,0.005,0.0127,0.0238,0.0303,0.0375,0.0425,0.0465,0.0485,0.0467,0.0491,0.0467,0.0455,0.0451,0.0377,0.0379,0.0226,0.0208,0.0393,0.0394,0.0395,0.0396,0,-0.0192,-0.0157,-0.0147,-0.0132,-0.0073,-0.0031,0.0028,0.014,0.0209,0.0304,0.0334,0.0391,0.0408,0.0394,0.0392,0.042,0.0329,0.0367,0.0281,0.0276,0.0224,0.0215,0.032,0.0321,0.0321,0.0321,0.0322,0,-0.0185,-0.0174,-0.0154,-0.0146,-0.0097,-0.0046,0.0036,0.0113,0.0199,0.0256,0.0331,0.0342,0.0381,0.0353,0.0348,0.0273,0.0291,0.0255,0.0238,0.0229,0.0223,0.035,0.0355,0.0317,0.0318,0.0319,0.0319,0,-0.0199,-0.0191,-0.0175,-0.013,-0.0105,-0.0061,0.004,0.0096,0.0173,0.0232,0.0252,0.0288,0.0245,0.0254,0.0212,0.0201,0.0151,0.0118,0.0092,0.0073,0.0119,0.0127,0.0004,0.0001,-0.0002,-0.0004,-0.0006,0,-0.0206,-0.0205,-0.017,-0.0139,-0.0113,-0.0043,0.0013,0.0095,0.0138,0.019,0.0192,0.017,0.0134,0.0036,0.0025,-0.0032,0.0038,-0.0088,-0.0027,0.0089,0.0085,0.0097,0.0108,-0.0091,-0.0093,-0.0095,-0.0097,0,-0.021,-0.0202,-0.0185,-0.0139,-0.0092,-0.0039,0.0029,0.0037,0.0114,0.0123,0.0093,0.0052,-0.0026,-0.0096,-0.0157,-0.0185,-0.0074,-0.0133,-0.002,-0.0002,-0.0008,-0.0009,0.0006,-0.0115,-0.0113,-0.0112,-0.0111,-0.011,-0.0204,-0.0197,-0.0178,-0.0132,-0.0075,-0.0048,-0.0021,0.0007,0.0017,0.0032,-0.0013,-0.0051,-0.0117,-0.0208,-0.0256,-0.0257,-0.0245,-0.0228,-0.0218,-0.0207,-0.0192,-0.0202,-0.0344,-0.0344,-0.0344,-0.0343,-0.0343,0,-0.0216,-0.0205,-0.0164,-0.0131,-0.0094,-0.0046,-0.0017,-0.0016,-0.0043,-0.0025,-0.006,-0.0133,-0.0232,-0.0246,-0.0283,-0.0344,-0.0305,-0.0338,-0.026,-0.0246,-0.0233,-0.0213,-0.0374,-0.0374,-0.0373,-0.0373,0,0,-0.022,-0.0215,-0.0212,-0.0173,-0.0124,-0.0082,-0.0072,-0.0078,-0.0067,-0.0085,-0.0068,-0.0131,-0.0205,-0.0225,-0.0313,-0.0318,-0.0259,-0.033,-0.0314,-0.0203,-0.0187,-0.0198,-0.0159,0,0,0,0,0]}],[{"header":{"parameterUnit":"m.s-1","parameterCategory":2,"la1":30.2991,"la2":30.254,"lo1":-89.0895,"lo2":-89.0444,"dy":0.0017,"dx":0.0017,"nx":28,"ny":28,"refTime":"2023-07-28T03:00:00:Z","depth":"4","parameterNumber":2,"parameterNumberName":"U-component_of_CURRENTS"},"data":[0,0,0,0,0,0,0,0,0,0,0,0,0,0,0,0,0,0,0,0,0,0,0,0,0,0,0,0,0,0,0,0,0,0,0,0,0,0,0,0,0,0,0,0,0,0,0,0,0,0,0,0,0,0,0,0,0,0,-0.0324,-0.0323,0,-0.0305,-0.0305,-0.0305,-0.0301,-0.0301,-0.0301,-0.0301,-0.0331,-0.0331,-0.0332,0,0,0,0,0,0,0,0,0,0,0,0,0,-0.0352,-0.0352,-0.0324,-0.0323,-0.0323,-0.0305,-0.0305,-0.0305,-0.0301,-0.0301,-0.0301,-0.0301,-0.0331,-0.0331,-0.0332,0,0,0,0,0,0,0,0,0,0,0,0,0,-0.0338,-0.0352,-0.0324,-0.0318,-0.0318,-0.0305,-0.0305,-0.0305,-0.0301,-0.0301,-0.0301,-0.0301,-0.033,-0.0331,-0.0332,-0.0338,0,0,-0.0336,-0.0336,0,0,0,0,0,0,0,0,-0.0339,-0.0338,-0.032,-0.0319,-0.0318,-0.0304,-0.0325,-0.0318,-0.0301,-0.0309,-0.0301,-0.0301,-0.0326,-0.0327,-0.0324,-0.0339,-0.034,-0.0336,-0.0337,-0.0337,-0.0337,0,0,0,0,0,0,0,-0.034,-0.0338,-0.0318,-0.0319,-0.0318,-0.0315,-0.0313,-0.0324,-0.0319,-0.0308,-0.0308,-0.0303,-0.0326,-0.0323,-0.0325,-0.0341,-0.0336,-0.0337,-0.0337,-0.0338,-0.0388,-0.0388,0,0,0,0,0,0,-0.034,-0.0339,-0.0318,-0.0317,-0.0328,-0.0314,-0.0313,-0.031,-0.0318,-0.0318,-0.0303,-0.0303,-0.0321,-0.0324,-0.0326,-0.0332,-0.0337,-0.0338,-0.0339,-0.0387,-0.0388,-0.0389,0,0,0,0,0,0,-0.0341,-0.0339,-0.0319,-0.0327,-0.0324,-0.0314,-0.0311,-0.0309,-0.0308,-0.0313,-0.0315,-0.0303,-0.0322,-0.0325,-0.0338,-0.0333,-0.0339,-0.034,-0.0386,-0.0387,-0.0388,-0.0345,0,0,0,0,0,0,-0.0342,-0.0339,-0.0338,-0.0327,-0.0323,-0.031,-0.031,-0.0309,-0.0304,-0.0304,-0.0314,-0.0316,-0.0322,-0.0336,-0.0339,-0.0335,-0.034,-0.0385,-0.0387,-0.0388,-0.0345,-0.0344,-0.0343,0,0,0,0,0,-0.0343,-0.0337,-0.0338,-0.0336,-0.0322,-0.031,-0.0308,-0.0302,-0.0304,-0.0302,-0.0312,-0.0316,-0.0346,-0.0337,-0.0341,-0.0337,-0.0385,-0.0386,-0.0388,-0.0346,-0.0344,-0.0343,0,0,0,0,0,0,-0.0347,-0.0336,-0.0337,-0.0328,-0.0321,-0.0309,-0.0304,-0.0303,-0.0307,-0.031,-0.0319,-0.0323,-0.0333,-0.0348,-0.0338,-0.0359,-0.0369,-0.0371,-0.0336,-0.0335,-0.0333,-0.0322,-0.0341,0,0,0,0,0,-0.0348,-0.0343,-0.0333,-0.0326,-0.0322,-0.0315,-0.031,-0.0307,-0.0307,-0.0309,-0.0315,-0.033,-0.0341,-0.0348,-0.036,-0.037,-0.0379,-0.0374,-0.0373,-0.0371,-0.0367,-0.039,-0.039,-0.0393,-0.0393,-0.0393,0,0,-0.0348,-0.0341,-0.0339,-0.0327,-0.0321,-0.031,-0.0313,-0.0304,-0.0297,-0.0313,-0.031,-0.0324,-0.0344,-0.0351,-0.0358,-0.0362,-0.0373,-0.0373,-0.0372,-0.0368,-0.0392,-0.0391,-0.039,-0.0394,-0.0394,-0.0394,0,0,-0.0339,-0.0339,-0.0329,-0.0323,-0.0312,-0.0307,-0.0305,-0.0296,-0.0295,-0.0295,-0.0307,-0.0318,-0.0334,-0.0343,-0.0351,-0.0356,-0.0366,-0.0367,-0.0348,-0.037,-0.0369,-0.0369,-0.0363,-0.0362,-0.0366,-0.0366,-0.0366,0,-0.034,-0.0327,-0.0325,-0.0311,-0.0306,-0.0305,-0.0294,-0.029,-0.0288,-0.029,-0.0292,-0.0315,-0.0327,-0.0338,-0.0336,-0.035,-0.0359,-0.0345,-0.0366,-0.0366,-0.0366,-0.0361,-0.036,-0.0364,-0.0364,-0.0365,-0.0365,0,-0.0319,-0.0312,-0.0305,-0.0291,-0.0285,-0.0276,-0.0271,-0.0268,-0.0269,-0.0268,-0.0277,-0.0291,-0.0307,-0.0313,-0.032,-0.0332,-0.0335,-0.0358,-0.0362,-0.0363,-0.0357,-0.0358,-0.0361,-0.0362,-0.0363,-0.0363,0,0,-0.0313,-0.0296,-0.0293,-0.029,-0.0276,-0.0271,-0.026,-0.0255,-0.0255,-0.0252,-0.0253,-0.0264,-0.0274,-0.0286,-0.0302,-0.0314,-0.0313,-0.0333,-0.0335,-0.0312,-0.0342,-0.026,-0.0253,-0.0342,-0.0342,-0.0343,-0.033,0,-0.0299,-0.0277,-0.0271,-0.0258,-0.025,-0.025,-0.0243,-0.024,-0.0241,-0.0243,-0.0252,-0.0261,-0.0264,-0.0275,-0.0285,-0.0314,-0.0316,-0.0313,-0.0358,-0.0358,-0.0274,-0.0252,-0.0344,-0.033,-0.0331,-0.0331,-0.0331,0,-0.0278,-0.0269,-0.0253,-0.0251,-0.0248,-0.0241,-0.0242,-0.0236,-0.0237,-0.0239,-0.0242,-0.0252,-0.0259,-0.0271,-0.0296,-0.0295,-0.0311,-0.0327,-0.0327,-0.0266,-0.0277,-0.0337,-0.0332,-0.0332,-0.0332,-0.0332,-0.0332,0,-0.0274,-0.0259,-0.025,-0.0246,-0.0239,-0.0238,-0.0237,-0.0236,-0.0235,-0.0239,-0.0238,-0.0251,-0.0257,-0.0281,-0.029,-0.0304,-0.0313,-0.0344,-0.0279,-0.0273,-0.0371,-0.0372,-0.0361,-0.0361,-0.0362,-0.0362,-0.0362,0,-0.0259,-0.0255,-0.0249,-0.0244,-0.0241,-0.024,-0.0238,-0.0238,-0.0239,-0.0232,-0.0239,-0.023,-0.0263,-0.0264,-0.0284,-0.026,-0.0308,-0.0258,-0.0262,-0.0352,-0.0351,-0.037,-0.0371,-0.0361,-0.0361,-0.0361,-0.0361,0,-0.0253,-0.0247,-0.0241,-0.0237,-0.0236,-0.0235,-0.0233,-0.0229,-0.0235,-0.0224,-0.0223,-0.022,-0.0204,-0.0216,-0.0246,-0.0238,-0.0241,-0.0225,-0.0287,-0.0297,-0.0189,-0.0188,-0.0154,-0.0151,-0.0148,-0.0146,-0.0144,0,-0.0248,-0.0243,-0.0236,-0.0228,-0.0225,-0.0223,-0.0216,-0.0223,-0.0216,-0.0207,-0.0197,-0.0177,-0.0166,-0.013,-0.0154,-0.0153,-0.0159,-0.0158,-0.0193,-0.0159,-0.0167,-0.0171,-0.0173,-0.014,-0.0139,-0.0139,-0.0138,0,-0.0244,-0.0242,-0.0234,-0.0213,-0.0204,-0.0194,-0.0186,-0.0178,-0.0177,-0.019,-0.015,-0.0125,-0.0091,-0.0084,-0.0066,-0.008,-0.0159,-0.0131,-0.0138,-0.0171,-0.0142,-0.0153,-0.0159,-0.0129,-0.013,-0.0131,-0.0132,0,-0.0241,-0.0234,-0.0217,-0.0195,-0.018,-0.0152,-0.0157,-0.0134,-0.0129,-0.0123,-0.0107,-0.0083,-0.0084,-0.0044,-0.0039,-0.002,-0.0031,-0.005,-0.0061,-0.0071,-0.0047,0.0002,0.0071,0,0,0,0,0,-0.0237,-0.0216,-0.0196,-0.0162,-0.0143,-0.0132,-0.0125,-0.013,-0.0133,-0.0093,-0.0098,-0.006,-0.0016,-0.0009,0.0027,-0.0,-0.0035,0.0042,-0.0064,-0.0079,-0.0089,-0.0067,0,0,0,0,0,0,-0.0229,-0.0212,-0.019,-0.0133,-0.0103,-0.0079,-0.0072,-0.0077,-0.0057,-0.0063,-0.004,-0.0044,-0.0007,-0.0029,0.0032,0.0035,-0.0026,0.0051,0.0052,-0.0073,-0.0082,-0.0091,-0.0071,0,0,0,0,0]},{"header":{"parameterUnit":"m.s-1","parameterCategory":2,"la1":30.2991,"la2":30.254,"lo1":-89.0895,"lo2":-89.0444,"dy":0.0017,"dx":0.0017,"nx":28,"ny":28,"refTime":"2023-07-28T03:00:00:Z","depth":"4","parameterNumber":3,"parameterNumberName":"V-component_of_CURRENTS"},"data":[0,0,0,0,0,0,0,0,0,0,0,0,0,0,0,0,0,0,0,0,0,0,0,0,0,0,0,0,0,0,0,0,0,0,0,0,0,0,0,0,0,0,0,0,0,0,0,0,0,0,0,0,0,0,0,0,0,0,-0.0241,-0.0241,0,-0.0277,-0.0277,-0.0277,-0.0284,-0.0283,-0.0283,-0.0283,-0.0286,-0.0287,-0.0287,0,0,0,0,0,0,0,0,0,0,0,0,0,-0.018,-0.0181,-0.0241,-0.0241,-0.0242,-0.0276,-0.0277,-0.0278,-0.0284,-0.0283,-0.0283,-0.0282,-0.0286,-0.0287,-0.0287,0,0,0,0,0,0,0,0,0,0,0,0,0,-0.0211,-0.0182,-0.0241,-0.0249,-0.025,-0.0276,-0.0277,-0.0278,-0.0284,-0.0283,-0.0283,-0.0282,-0.0286,-0.0287,-0.0287,-0.0301,0,0,-0.0289,-0.0289,0,0,0,0,0,0,0,0,-0.0209,-0.0213,-0.0247,-0.0248,-0.025,-0.0275,-0.0257,-0.0284,-0.0284,-0.0271,-0.0283,-0.0282,-0.028,-0.0281,-0.0289,-0.0301,-0.0301,-0.0289,-0.029,-0.029,-0.029,0,0,0,0,0,0,0,-0.0207,-0.0211,-0.0255,-0.0248,-0.0249,-0.0251,-0.0255,-0.0262,-0.0277,-0.0272,-0.0273,-0.0276,-0.028,-0.0289,-0.0289,-0.0301,-0.0289,-0.029,-0.029,-0.029,-0.034,-0.0341,0,0,0,0,0,0,-0.0203,-0.021,-0.0254,-0.0256,-0.0227,-0.0253,-0.0257,-0.0267,-0.0278,-0.0279,-0.0277,-0.0277,-0.0288,-0.0289,-0.029,-0.0323,-0.029,-0.029,-0.0291,-0.0339,-0.034,-0.0341,0,0,0,0,0,0,-0.0201,-0.0207,-0.0253,-0.0233,-0.0239,-0.0254,-0.0266,-0.0268,-0.0281,-0.0282,-0.0282,-0.0287,-0.0288,-0.0289,-0.0308,-0.0322,-0.0291,-0.0291,-0.0338,-0.0339,-0.034,-0.0378,0,0,0,0,0,0,-0.0199,-0.0206,-0.0215,-0.0233,-0.024,-0.0275,-0.0267,-0.0269,-0.0284,-0.0284,-0.0291,-0.0291,-0.0287,-0.0307,-0.0308,-0.0322,-0.0292,-0.0336,-0.0338,-0.034,-0.0375,-0.038,-0.0385,0,0,0,0,0,-0.0197,-0.0212,-0.0215,-0.0221,-0.0251,-0.0275,-0.028,-0.0288,-0.0285,-0.0297,-0.0304,-0.0291,-0.0319,-0.0308,-0.031,-0.0324,-0.0335,-0.0338,-0.034,-0.0373,-0.0379,-0.0385,0,0,0,0,0,0,-0.0191,-0.0214,-0.0218,-0.024,-0.0258,-0.0276,-0.0289,-0.0293,-0.0309,-0.031,-0.0306,-0.0307,-0.0332,-0.0323,-0.0312,-0.0344,-0.0324,-0.0326,-0.0349,-0.0355,-0.0359,-0.0352,-0.0292,0,0,0,0,0,-0.0194,-0.0211,-0.0232,-0.025,-0.0259,-0.0275,-0.0286,-0.0294,-0.0309,-0.0315,-0.0323,-0.033,-0.0342,-0.0344,-0.0357,-0.0372,-0.0359,-0.0381,-0.0386,-0.039,-0.0385,-0.0386,-0.039,-0.0348,-0.0348,-0.0348,0,0,-0.0195,-0.0211,-0.0221,-0.0249,-0.0264,-0.0286,-0.0281,-0.0304,-0.0323,-0.0313,-0.0344,-0.0352,-0.0352,-0.0376,-0.0384,-0.0368,-0.0397,-0.0392,-0.0396,-0.0389,-0.0388,-0.0392,-0.0396,-0.0349,-0.0349,-0.0349,0,0,-0.0207,-0.0223,-0.0241,-0.0259,-0.0285,-0.0298,-0.0306,-0.0332,-0.0345,-0.0375,-0.0374,-0.0391,-0.0409,-0.0414,-0.0416,-0.0452,-0.0428,-0.0454,-0.0463,-0.0465,-0.0468,-0.047,-0.0463,-0.0465,-0.0448,-0.0448,-0.0448,0,-0.0208,-0.0234,-0.025,-0.0272,-0.0288,-0.0305,-0.0327,-0.0347,-0.0378,-0.0386,-0.0389,-0.0423,-0.0428,-0.0445,-0.0459,-0.0463,-0.0452,-0.0442,-0.047,-0.0472,-0.0474,-0.0466,-0.0467,-0.045,-0.045,-0.045,-0.0449,0,-0.0232,-0.0255,-0.0268,-0.0302,-0.0322,-0.0345,-0.0372,-0.0395,-0.0411,-0.0426,-0.0456,-0.047,-0.048,-0.0491,-0.0486,-0.0502,-0.0488,-0.0482,-0.0453,-0.048,-0.0471,-0.0471,-0.0453,-0.0452,-0.0452,-0.0451,0,0,-0.0231,-0.0275,-0.0281,-0.0296,-0.0339,-0.0355,-0.0391,-0.0422,-0.0434,-0.0471,-0.0486,-0.0519,-0.0518,-0.052,-0.0519,-0.052,-0.0533,-0.0503,-0.0502,-0.0492,-0.0526,-0.0496,-0.0493,-0.0527,-0.0527,-0.0528,-0.0515,0,-0.0245,-0.0283,-0.0305,-0.0342,-0.0363,-0.0389,-0.0415,-0.0444,-0.0467,-0.0489,-0.0507,-0.0525,-0.053,-0.0531,-0.0539,-0.0536,-0.0535,-0.0536,-0.0504,-0.0503,-0.047,-0.0493,-0.0529,-0.0515,-0.0515,-0.0515,-0.0515,0,-0.0263,-0.0285,-0.0319,-0.0354,-0.0364,-0.0387,-0.042,-0.0446,-0.0478,-0.0492,-0.0514,-0.0526,-0.0544,-0.0541,-0.055,-0.0547,-0.0538,-0.0534,-0.0534,-0.049,-0.0474,-0.0482,-0.0516,-0.0516,-0.0516,-0.0516,-0.0516,0,-0.0251,-0.0295,-0.0319,-0.0334,-0.0377,-0.0391,-0.0411,-0.0444,-0.0462,-0.0489,-0.05,-0.0525,-0.0535,-0.0538,-0.0541,-0.0541,-0.054,-0.0539,-0.0504,-0.0501,-0.0514,-0.0511,-0.0538,-0.0538,-0.0538,-0.0538,-0.0538,0,-0.0258,-0.028,-0.0312,-0.0327,-0.0348,-0.0377,-0.0399,-0.0421,-0.0448,-0.0466,-0.0494,-0.0508,-0.0533,-0.054,-0.0539,-0.0523,-0.0539,-0.0506,-0.0497,-0.0531,-0.0531,-0.0514,-0.0512,-0.0538,-0.0538,-0.0538,-0.0538,0,-0.0251,-0.0274,-0.03,-0.0334,-0.0345,-0.0357,-0.0393,-0.041,-0.0429,-0.0452,-0.0461,-0.0497,-0.0504,-0.0518,-0.0521,-0.0514,-0.0504,-0.049,-0.0522,-0.0515,-0.0465,-0.0465,-0.0453,-0.0452,-0.0451,-0.045,-0.045,0,-0.0258,-0.0269,-0.0298,-0.0312,-0.0331,-0.0353,-0.0373,-0.0399,-0.0417,-0.0444,-0.0456,-0.047,-0.049,-0.047,-0.0487,-0.0477,-0.0472,-0.0464,-0.0472,-0.0464,-0.0457,-0.0458,-0.0459,-0.0448,-0.0448,-0.0448,-0.0447,0,-0.0272,-0.0276,-0.0295,-0.0315,-0.0336,-0.0356,-0.0382,-0.0388,-0.0416,-0.0432,-0.0437,-0.044,-0.0444,-0.0452,-0.0441,-0.0437,-0.0472,-0.0454,-0.0456,-0.0464,-0.0458,-0.0452,-0.0454,-0.0444,-0.0445,-0.0445,-0.0445,0,-0.0286,-0.0292,-0.0312,-0.0327,-0.0349,-0.0362,-0.0369,-0.0387,-0.0398,-0.0418,-0.0418,-0.0428,-0.0442,-0.043,-0.0426,-0.0415,-0.0413,-0.0407,-0.0411,-0.0415,-0.041,-0.0397,-0.0357,0,0,0,0,0,-0.031,-0.0317,-0.033,-0.0347,-0.0362,-0.0375,-0.0387,-0.0393,-0.0406,-0.0399,-0.0404,-0.0404,-0.0395,-0.0405,-0.0386,-0.0416,-0.0421,-0.0394,-0.0417,-0.0426,-0.0429,-0.0427,0,0,0,0,0,0,-0.033,-0.0345,-0.0336,-0.0361,-0.0374,-0.0395,-0.0398,-0.0402,-0.0394,-0.04,-0.0395,-0.0394,-0.0391,-0.0406,-0.0386,-0.0387,-0.0395,-0.0397,-0.0396,-0.0423,-0.0427,-0.043,-0.0429,0,0,0,0,0]}]]